Voltar ao catálogo

STARLINK-5655

AtivoComunicaçõesVLEO
NORAD 55336·PAYLOAD·🇺🇸 United States

Lançado Jan 26, 2023 de Cape Canaveral Space Force Station

Loading…

Próximas Passagens (próximas 24 horas)

TLE

AtualizadoSource: CelesTrak SupGP

Época: Sep 15, 2026, 01:55 UTC

1 55336C 23013F   26258.08034722  .00024075  00000+0  87182-3 0  2584
2 55336  43.0012 299.1205 0001672 269.5805 218.7947 15.27572566    18

Acompanhe STARLINK-5655 em tempo real com AllMySat

Download on the App Store